Regional Weather Roundup
Issued by NWS

Home | Current Version | Previous Version | Graphics & Text | Print | Product List | Glossary On
Versions: 1 2 3 4 5 6 7 8 9 10 11 12 13 14 15 16 17 18 19 20 21 22 23 24 25 26 27 28 29 30 31 32 33 34 35 36 37 38 39 40 41 42 43 44 45 46 47 48 49 50
000
ASUS43 KBIS 040002
RWRND

NORTH DAKOTA REGIONAL WEATHER ROUNDUP
NATIONAL WEATHER SERVICE BISMARCK ND
700 PM CDT TUE MAY 03 2016

NOTE: "FAIR" INDICATES FEW OR NO CLOUDS BELOW 12,000 FEET WITH NO
SIGNIFICANT WEATHER AND/OR OBSTRUCTIONS TO VISIBILITY.


NDZ001>003-009>011-017-040100-
NORTHWEST NORTH DAKOTA

CITY           SKY/WX    TMP DP  RH WIND       PRES   REMARKS
WILLISTON      SUNNY     79  38  22 NE12      30.03S
6HR MIN TEMP:  77; 6HR MAX TEMP:  82;

MINOT          SUNNY     76  25  15 N14G24    30.01R
MINOT AFB      SUNNY     72  29  20 N15       30.00R
$$

NDZ018>021-031>035-040>046-040100-
SOUTHWEST NORTH DAKOTA

CITY           SKY/WX    TMP DP  RH WIND       PRES   REMARKS
BISMARCK       SUNNY     73  33  23 N21G29    29.98S
6HR MIN TEMP:  73; 6HR MAX TEMP:  77;

DICKINSON      SUNNY     74  38  27 N15       30.02S
GARRISON         N/A     74  33  22 N13G22    30.00S
6HR MIN TEMP:  72; 6HR MAX TEMP:  76;

HETTINGER ARPT SUNNY     75  35  23 N15       30.05R
$$

NDZ004>008-012>016-024-026-027-054-040100-
NORTHEAST NORTH DAKOTA

CITY           SKY/WX    TMP DP  RH WIND       PRES   REMARKS
GRAND FORKS    SUNNY     64  32  30 N24G35    29.92R
GRND FRKS AFB  SUNNY     63  31  30 N22G30    29.93R
DEVILS LAKE    SUNNY     64  26  23 N23       29.99R
$$

NDZ022-023-025-028>030-036>039-047>053-040100-
SOUTHEAST NORTH DAKOTA

CITY           SKY/WX    TMP DP  RH WIND       PRES   REMARKS
FARGO          SUNNY     67  24  19 N29G37    29.88R
6HR MIN TEMP:  67; 6HR MAX TEMP:  72;

JAMESTOWN      SUNNY     66  23  19 N26G33    29.94R
$$





USA.gov is the U.S. government's official web portal to all federal, state and local government web resources and services.